CDT,Max TemperatureF,Mean TemperatureF,Min TemperatureF,Max Dew PointF,MeanDew PointF,Min DewpointF,Max Humidity, Mean Humidity, Min Humidity, Max Sea Level PressureIn, Mean Sea Level PressureIn, Min Sea Level PressureIn, Max VisibilityMiles, Mean VisibilityMiles, Min VisibilityMiles, Max Wind SpeedMPH, Mean Wind SpeedMPH, Max Gust SpeedMPH,PrecipitationIn, CloudCover, Events, WindDirDegrees
2013-3-1,36,31,23,27,23,18,82,70,59,30.39,30.31,30.25,10,10,9,18,10,24,0.00,7,,352
2013-3-2,45,32,19,27,21,16,89,66,40,30.42,30.33,30.18,10,10,10,8,6,,0.00,0,,339
2013-3-3,63,46,30,35,31,24,79,55,33,30.18,29.88,29.62,10,10,10,17,9,,0.00,0,,151
2013-3-4,63,51,39,40,36,33,89,63,41,30.06,29.72,29.55,10,10,8,34,12,46,0.01,1,Rain,20
2013-3-5,46,36,27,34,22,18,82,56,39,30.43,30.33,30.11,10,10,10,25,17,36,0.00,0,,320
2013-3-6,48,34,21,24,20,17,85,57,30,30.49,30.37,30.22,10,10,7,13,5,,0.00,0,,100
2013-3-7,66,50,34,30,26,24,70,43,22,30.22,30.11,30.02,10,10,9,23,12,33,0.00,0,,144
2013-3-8,63,54,46,46,40,30,72,60,48,30.11,30.02,29.91,10,10,9,24,15,32,0.00,4,,144
2013-3-9,59,56,52,59,53,42,100,88,60,29.91,29.71,29.59,10,8,1,25,18,31,0.37,7,Rain-Thunderstorm,168
2013-3-10,50,40,30,46,31,22,97,85,72,30.07,29.85,29.63,10,9,2,28,18,38,0.01,8,Snow,331
2013-3-11,50,36,24,27,20,13,81,58,26,30.07,30.03,30.00,10,10,10,17,11,31,0.00,1,,313
2013-3-12,55,46,35,42,32,25,100,62,35,30.38,30.24,30.09,10,10,8,16,7,23,0.09,3,Rain,339
2013-3-13,57,42,26,30,25,22,88,56,31,30.50,30.40,30.31,10,10,10,13,4,17,0.00,0,,138
2013-3-14,77,56,37,45,37,25,83,53,30,30.29,30.18,30.08,10,10,10,16,8,24,0.00,0,,204
2013-3-15,81,63,46,49,45,41,83,58,29,30.09,29.88,29.72,10,10,10,14,6,,0.00,0,,188
2013-3-16,61,53,43,46,39,32,80,62,47,29.95,29.85,29.71,10,9,7,23,11,34,0.00,2,,41
2013-3-17,41,39,37,37,34,30,97,84,67,29.96,29.86,29.72,10,8,2,21,14,29,0.00,8,,57
2013-3-18,57,46,35,38,32,21,100,69,25,30.05,29.91,29.76,10,9,6,20,7,23,0.00,3,,339
2013-3-19,55,44,33,32,22,16,79,45,24,30.30,30.18,30.06,10,10,10,16,8,23,0.00,0,,79
2013-3-20,51,38,26,29,21,15,92,54,28,30.45,30.29,30.06,10,10,7,14,4,,0.00,0,,27
2013-3-21,44,40,36,32,24,17,86,56,37,30.00,29.85,29.75,10,10,10,17,14,31,0.00,5,,103
2013-3-22,48,41,34,34,32,30,92,77,56,29.98,29.92,29.83,10,9,4,15,9,,0.00,7,,39
2013-3-23,37,35,33,36,34,32,100,94,82,29.97,29.88,29.81,10,4,2,22,11,29,0.24,8,Rain-Snow,39
2013-3-24,37,31,26,32,25,21,100,83,55,30.22,30.02,29.89,10,5,0,31,22,37,0.04,4,Fog-Snow,332
2013-3-25,39,32,24,22,19,17,88,64,46,30.43,30.34,30.22,10,10,10,24,13,29,0.00,4,,319
2013-3-26,50,34,19,23,20,16,89,59,33,30.49,30.38,30.25,10,10,9,13,4,16,0.00,0,,167
2013-3-27,66,50,37,38,29,23,59,46,34,30.25,30.15,30.07,10,10,10,24,12,31,0.00,1,,145
2013-3-28,71,53,36,49,40,30,79,58,44,30.17,30.12,30.05,10,10,10,13,5,20,0.00,2,,123
2013-3-29,73,59,46,55,52,45,93,72,51,30.14,30.09,30.02,10,10,7,12,5,20,0.00,3,,108
2013-3-30,75,65,55,59,56,52,100,86,53,30.03,29.96,29.85,10,8,2,18,9,24,0.47,5,Rain-Thunderstorm,157
2013-3-31,69,57,46,53,45,37,100,68,33,30.05,30.00,29.93,10,10,6,26,8,36,0.17,1,Rain,348